Back to catalog

COSMOS 1275 DEB

AlivePO
NORAD 42231·DEBRIS·🇷🇺 Russia

Launched Jun 4, 1981 from Plesetsk Cosmodrome

Loading…

Next Passes (next 24 hours)

TLE

AgingSource: Space-Track

Epoch: Sep 9, 2026, 01:11 UTC

1 42231U 81053UX  26252.04976835  .00003409  00000-0  12222-2 0  9995
2 42231  82.7587 168.4590 0031336 294.6370  65.1555 14.33462065661522

Track COSMOS 1275 DEB in real time with AllMySat

Download on the App Store